DW8587 Weather Reports


Display with metric or nautical units.
time (UTC)temp
F
wind
direction
speed
MPH
gust
MPH
rain 1hr
in
rain 24hr
in
rain mn
in
humidity
%
barometer
mb
20260904200022 77 56 1.0 3.0 0.00 0.00 0.00 70 1016.2
20260904194548 77 81 2.0 3.0 0.00 0.00 0.00 69 1016.1
20260904193034 78 179 1.0 2.0 0.00 0.00 0.00 70 1016.0
20260904191520 78 179 0.0 1.0 0.00 0.00 0.00 69 1015.9
20260904190019 79 35 1.0 3.0 0.00 0.00 0.00 69 1015.7
20260904184519 80 35 2.0 3.0 0.00 0.00 0.00 66 1015.6
20260904183019 82 32 2.0 3.0 0.00 0.00 0.00 64 1015.4
20260904181518 84 252 0.0 1.0 0.00 0.00 0.00 58 1015.3
20260904180019 85 252 0.0 1.0 0.00 0.00 0.00 56 1015.3
20260904174517 86 252 0.0 1.0 0.00 0.00 0.00 55 1015.2
20260904173022 87 252 0.0 2.0 0.00 0.00 0.00 51 1015.1
20260904171524 88 252 0.0 1.0 0.00 0.00 0.00 50 1015.0
20260904170013 88 306 1.0 3.0 0.00 0.00 0.00 49 1015.2
20260904164513 89 312 0.0 3.0 0.00 0.00 0.00 47 1015.2
20260904163011 90 333 1.0 5.0 0.00 0.00 0.00 45 1015.3
20260904161510 91 148 1.0 3.0 0.00 0.00 0.00 43 1015.3
20260904160010 90 172 1.0 3.0 0.00 0.00 0.00 41 1015.4
20260904154507 90 208 4.0 10.0 0.00 0.00 0.00 43 1015.5
20260904153020 90 170 4.0 9.0 0.00 0.00 0.00 45 1015.6
20260904151505 91 271 3.0 9.0 0.00 0.00 0.00 45 1015.7
20260904150004 92 188 3.0 6.0 0.00 0.00 0.00 43 1015.8
20260904144503 92 300 4.0 7.0 0.00 0.00 0.00 43 1015.9
20260904143101 92 319 2.0 8.0 0.00 0.00 0.00 43 1015.9
20260904141622 90 272 3.0 9.0 0.00 0.00 0.00 46 1016.1
20260904140107 91 178 2.0 9.0 0.00 0.00 0.00 45 1016.0
20260904134558 89 219 4.0 9.0 0.00 0.00 0.00 47 1016.3
20260904133108 89 5 2.0 10.0 0.00 0.00 0.00 47 1016.3
20260904131608 90 222 3.0 11.0 0.00 0.00 0.00 47 1016.4
20260904130051 89 169 3.0 7.0 0.00 0.00 0.00 47 1016.6
20260904124547 88 140 3.0 9.0 0.00 0.00 0.00 49 1016.8
20260904123045 89 163 2.0 5.0 0.00 0.00 0.00 48 1016.9
20260904121544 88 231 4.0 6.0 0.00 0.00 0.00 48 1017.1
20260904120045 88 208 2.0 4.0 0.00 0.00 0.00 49 1017.2
20260904114538 88 161 3.0 8.0 0.00 0.00 0.00 48 1017.2
20260904113039 87 111 2.0 8.0 0.00 0.00 0.00 48 1017.4
20260904111535 87 146 2.0 6.0 0.00 0.00 0.00 50 1017.5
20260904110033 86 267 3.0 7.0 0.00 0.00 0.00 50 1017.6
20260904104531 85 221 3.0 7.0 0.00 0.00 0.00 50 1017.8
20260904103028 85 13 1.0 7.0 0.00 0.00 0.00 49 1017.9
20260904101526 85 151 1.0 4.0 0.00 0.00 0.00 50 1018.1
20260904100022 84 116 3.0 7.0 0.00 0.00 0.00 50 1018.3
20260904094548 84 57 1.0 6.0 0.00 0.00 0.00 51 1018.4
20260904084534 82 110 2.0 5.0 0.00 0.00 0.00 53 1018.6
20260904083029 82 138 2.0 5.0 0.00 0.00 0.00 53 1018.5
20260904081525 83 148 1.0 4.0 0.00 0.00 0.00 51 1018.4
20260904080030 82 177 1.0 3.0 0.00 0.00 0.00 53 1018.5
20260904074526 82 19 0.0 2.0 0.00 0.00 0.00 55 1018.5
20260904073014 80 346 0.0 2.0 0.00 0.00 0.00 60 1018.5
20260904071508 78 346 1.0 3.0 0.00 0.00 0.00 63 1018.3
20260904070004 76 46 1.0 5.0 0.00 0.00 0.00 66 1018.2
20260904064619 74 355 1.0 3.0 0.00 0.00 0.00 68 1018.3
20260904063055 72 41 2.0 4.0 0.00 0.00 0.00 70 1018.2
20260904061552 70 42 2.0 4.0 0.00 0.00 0.00 73 1018.1
20260904060046 69 40 1.0 3.0 0.00 0.00 0.00 74 1018.1
20260904054543 68 34 2.0 3.0 0.00 0.00 0.00 76 1018.1
20260904053041 66 42 3.0 5.0 0.00 0.00 0.00 79 1018.0
20260904051536 65 37 3.0 6.0 0.00 0.00 0.00 80 1017.8
20260904050032 65 34 4.0 6.0 0.00 0.00 0.00 80 1017.7
20260904044541 66 40 2.0 5.0 0.00 0.00 0.00 79 1017.5
20260904043030 66 28 3.0 8.0 0.00 0.00 0.00 79 1017.5
20260904041536 66 9 2.0 5.0 0.00 0.00 0.00 79 1017.6
20260904040029 66 39 4.0 8.0 0.00 0.00 0.00 79 1017.5
20260904034528 66 43 3.0 5.0 0.00 0.00 0.00 79 1017.5
20260904033027 66 32 4.0 6.0 0.00 0.00 0.00 79 1017.6
20260904031526 66 44 5.0 8.0 0.00 0.00 0.00 79 1017.7
20260904030027 67 40 3.0 7.0 0.00 0.00 0.00 79 1017.6
20260904024524 66 38 5.0 6.0 0.00 0.00 0.00 80 1017.6
20260904023023 67 22 4.0 6.0 0.00 0.00 0.00 79 1017.7
20260904021521 68 28 2.0 4.0 0.00 0.00 0.00 78 1017.6
20260904020032 68 34 2.0 3.0 0.00 0.00 0.00 78 1017.5
20260904014518 68 34 1.0 5.0 0.00 0.00 0.00 78 1017.5
20260904013017 68 39 4.0 5.0 0.00 0.00 0.00 78 1017.4
20260904011516 69 44 5.0 7.0 0.00 0.00 0.00 78 1017.3
20260904010017 69 355 3.0 5.0 0.00 0.00 0.00 78 1017.3
20260904004515 69 41 3.0 5.0 0.00 0.00 0.00 78 1017.4
20260904003013 69 355 2.0 3.0 0.00 0.00 0.00 77 1017.5
20260904001512 69 32 2.0 3.0 0.00 0.00 0.00 77 1017.5
20260904000009 70 27 1.0 3.0 0.00 0.00 0.00 76 1017.6
20260903234510 70 5 1.0 3.0 0.00 0.00 0.00 75 1017.7
20260903233008 70 34 4.0 6.0 0.00 0.00 0.00 75 1017.7
20260903231506 70 34 3.0 6.0 0.00 0.00 0.00 76 1017.7
20260903230005 70 39 4.0 6.0 0.00 0.00 0.00 76 1017.5
20260903224503 70 44 3.0 4.0 0.00 0.00 0.00 76 1017.4
20260903223002 71 355 2.0 4.0 0.00 0.00 0.00 75 1017.6
20260903221503 71 34 3.0 6.0 0.00 0.00 0.00 75 1017.6
20260903220106 71 26 3.0 8.0 0.00 0.00 0.00 75 1017.7
20260903214557 71 38 3.0 5.0 0.00 0.00 0.00 74 1017.7
20260903213057 72 36 3.0 5.0 0.00 0.00 0.00 74 1017.6
20260903211608 72 42 2.0 5.0 0.00 0.00 0.00 74 1017.5
20260903210056 72 28 4.0 6.0 0.00 0.00 0.00 74 1017.5
20260903204601 72 346 2.0 6.0 0.00 0.00 0.00 74 1017.5
20260903203055 72 18 2.0 5.0 0.00 0.00 0.00 74 1017.4
20260903201555 73 41 2.0 4.0 0.00 0.00 0.00 74 1017.3